sat.trackr.live / text

‹ back to catalog

PREFIRE-1

NORAD 59965 · 2024-108A

PAYLOAD ACTIVE UNKNOWN

§ Identity

Operator
Country
US
Launch date
2024-06-05
Launch site
RLLB
Launch vehicle
Mass (kg)
RCS (m²)

External: N2YO · Heavens-Above · Gunter

§ Orbital elements

Epoch: 2026-05-25T03:30:06.299136Z

Period
94.53 min
Inclination
97.5292°
Eccentricity
0.0010268
Mean motion
15.23391038 rev/d
Perigee alt
488.6 km
Apogee alt
502.7 km
Semi-major
6,873.8 km
B*
1.7752e-4
RAAN
299.8763°
Arg perigee
327.6661°
Mean anomaly
32.3945°
Rev number
10,908

§ Raw data

PREFIRE-11 59965U 24108A   26145.14590624  .00004155  00000+0  17752-3 0  99972 59965  97.5292 299.8763 0010268 327.6661  32.3945 15.23391038109081

JSON: /api/v1/satellites/59965 · /tle

For live sub-satellite position, see the globe view (requires WebGL).

§ Visibility from observer

Set your observer location to see the next 7 days of passes ≥ 10°. The values pass through the URL so the page stays shareable.

No JS? Fill the form by hand. The geolocation button needs JavaScript.

§ Radio — SatNOGS DB

ModeDescriptionDownlinkUplink
BPSK S-band telemetry 2.213 GHz
BPSK S-band telemetry 2.212 GHz

2 transmitters · refreshed weekly from db.satnogs.org